This is the latest recevied weather packets stored in our database for station/object SP2NBH-2. If no packets are shown the sender has not sent any weather packets the latest 10 day(s).
| Time | Temp. | Humidity | Pressure | Rain* | Wind** | Luminosity | Snow |
|---|---|---|---|---|---|---|---|
| 1777717028 | 30° C | 18% | 1022.7 hPa | - | - | - | - |
| 1777716128 | 30° C | 18% | 1023 hPa | - | - | - | - |
| 1777715228 | 29.44° C | 18% | 1023.2 hPa | - | - | - | - |
| 1777714327 | 28.33° C | 20% | 1023.4 hPa | - | - | - | - |
| 1777713427 | 27.78° C | 21% | 1023.4 hPa | - | - | - | - |
| 1777712529 | 27.78° C | 19% | 1023.6 hPa | - | - | - | - |
| 1777711627 | 28.89° C | 20% | 1023.7 hPa | - | - | - | - |
| 1777710726 | 27.78° C | 21% | 1023.9 hPa | - | - | - | - |
| 1777709918 | 28.89° C | 21% | 1024 hPa | - | - | - | - |
| 1777709018 | 26.67° C | 24% | 1024.1 hPa | - | - | - | - |
| 1777708118 | 23.33° C | 26% | 1024.1 hPa | - | - | - | - |
| 1777707218 | 22.78° C | 26% | 1024.2 hPa | - | - | - | - |
| 1777706318 | 22.78° C | 28% | 1024.2 hPa | - | - | - | - |
| 1777705417 | 22.78° C | 30% | 1024.5 hPa | - | - | - | - |
| 1777704517 | 20° C | 31% | 1024.5 hPa | - | - | - | - |
| 1777703617 | 18.89° C | 33% | 1024.5 hPa | - | - | - | - |
| 1777701818 | 17.22° C | 36% | 1024.5 hPa | - | - | - | - |
| 1777700952 | 16.11° C | 38% | 1024.5 hPa | - | - | - | - |
| 1777700918 | 16.11° C | 38% | 1024.5 hPa | - | - | - | - |
| 1777700018 | 15.56° C | 39% | 1024.5 hPa | - | - | - | - |
| 1777699153 | 15° C | 41% | 1024.5 hPa | - | - | - | - |
| 1777699118 | 15° C | 41% | 1024.5 hPa | - | - | - | - |
| 1777698218 | 13.89° C | 44% | 1024.5 hPa | - | - | - | - |
| 1777697318 | 13.33° C | 45% | 1024.5 hPa | - | - | - | - |
| 1777696418 | 12.22° C | 45% | 1024.6 hPa | - | - | - | - |
* Rain since midnight (hover to see other rain measurements)
** Current wind speed in m/s (hover to see current wind gust speed)